This is the latest recevied weather packets stored in our database for station/object SR9SMR. If no packets are shown the sender has not sent any weather packets the latest 1 day(s).
| Time | Temp. | Humidity | Pressure | Rain* | Wind** | Luminosity | Snow |
|---|---|---|---|---|---|---|---|
| 1777980212 | 17.78° C | 100% | 896.2 hPa | - | 9.39 m/s, 210° | - | - |
| 1777980088 | 17.78° C | 100% | 896.2 hPa | - | 9.39 m/s, 208° | - | - |
| 1777979963 | 17.22° C | 100% | 896.2 hPa | - | 9.83 m/s, 206° | - | - |
| 1777979839 | 17.22° C | 100% | 896.1 hPa | - | 10.28 m/s, 206° | - | - |
| 1777979778 | 17.22° C | 100% | 896.1 hPa | - | 10.28 m/s, 207° | - | - |
| 1777979645 | 17.22° C | 100% | 896.1 hPa | - | 10.73 m/s, 206° | - | - |
| 1777979585 | 17.22° C | 100% | 895.6 hPa | - | 10.73 m/s, 209° | - | - |
| 1777979523 | 17.22° C | 100% | 895.6 hPa | - | 9.83 m/s, 209° | - | - |
| 1777979401 | 17.22° C | 100% | 895.7 hPa | - | 9.83 m/s, 209° | - | - |
| 1777979276 | 17.22° C | 100% | 895.5 hPa | - | 10.28 m/s, 212° | - | - |
| 1777979152 | 17.78° C | 100% | 895.6 hPa | - | 9.39 m/s, 212° | - | - |
| 1777979028 | 17.78° C | 100% | 896 hPa | - | 8.49 m/s, 205° | - | - |
| 1777978965 | 17.78° C | 100% | 896 hPa | - | 8.94 m/s, 204° | - | - |
| 1777978831 | 17.78° C | 100% | 895.9 hPa | - | 8.94 m/s, 218° | - | - |
| 1777978770 | 18.33° C | 100% | 896.1 hPa | - | 9.83 m/s, 218° | - | - |
| 1777978707 | 18.33° C | 100% | 896.3 hPa | - | 9.83 m/s, 218° | - | - |
| 1777978584 | 18.33° C | 100% | 896.3 hPa | - | 9.83 m/s, 205° | - | - |
| 1777978459 | 17.78° C | 100% | 897 hPa | - | 8.94 m/s, 213° | - | - |
| 1777978334 | 17.78° C | 100% | 896.5 hPa | - | 8.94 m/s, 221° | - | - |
| 1777978210 | 17.78° C | 100% | 896.4 hPa | - | 8.94 m/s, 222° | - | - |
| 1777978149 | 17.78° C | 100% | 896.4 hPa | - | 8.94 m/s, 234° | - | - |
| 1777978014 | 17.78° C | 100% | 896.2 hPa | - | 9.39 m/s, 237° | - | - |
| 1777977952 | 17.78° C | 100% | 895.9 hPa | - | 9.83 m/s, 228° | - | - |
| 1777977890 | 17.78° C | 100% | 895.9 hPa | - | 10.28 m/s, 217° | - | - |
| 1777977766 | 17.78° C | 100% | 895.6 hPa | - | 10.73 m/s, 211° | - | - |
* Rain since midnight (hover to see other rain measurements)
** Current wind speed in m/s (hover to see current wind gust speed)